[[{"header":{"parameterUnit":"m.s-1","parameterCategory":1,"la1":30.2991,"la2":30.254,"lo1":-89.0895,"lo2":-89.0444,"dy":0.0017,"dx":0.0017,"nx":28,"ny":28,"refTime":"2025-07-20T03:00:00:Z","depth":0,"parameterNumber":2,"parameterNumberName":"U-component_of_WINDS"},"data":[0,0,0,0,0,0,0,0,0,0,0,0,0,0,0,0,0,0,0,0,0,0,0,0,0,0,0,0,0,0,0,0,0,0,0,0,0,0,0,0,0,0,0,0,0,0,0,0,0,0,0,0,0,0,0,0,0,0,2.4012,2.4013,0,2.4118,2.4119,2.4121,2.411,2.4108,2.4106,2.4105,2.4217,2.4221,2.4225,0,0,0,0,0,0,0,0,0,0,0,0,0,2.3804,2.3808,2.4012,2.4013,2.4015,2.4118,2.4119,2.4121,2.411,2.4108,2.4106,2.4104,2.4215,2.422,2.4226,0,0,0,0,0,0,0,0,0,0,0,0,0,2.39,2.3809,2.4012,2.4022,2.4024,2.4118,2.4119,2.4121,2.411,2.4108,2.4105,2.4103,2.4213,2.422,2.4227,2.4319,0,0,2.4247,2.425,0,0,0,0,0,0,0,0,2.3895,2.3908,2.4019,2.4021,2.4024,2.4098,2.4087,2.4188,2.4111,2.4078,2.4105,2.4102,2.4179,2.4189,2.4214,2.4324,2.4329,2.4248,2.4252,2.4255,2.4257,0,0,0,0,0,0,0,2.3888,2.3904,2.4054,2.4021,2.4023,2.4022,2.4033,2.4106,2.4141,2.408,2.408,2.4092,2.418,2.4208,2.4217,2.433,2.4248,2.4254,2.4258,2.4261,2.452,2.4523,0,0,0,0,0,0,2.3879,2.3898,2.4051,2.4057,2.3952,2.4028,2.404,2.4077,2.414,2.4148,2.4094,2.4091,2.4197,2.4209,2.4221,2.4331,2.4255,2.4261,2.4265,2.4517,2.4521,2.4524,0,0,0,0,0,0,2.3874,2.3893,2.4047,2.3978,2.3997,2.4034,2.4075,2.408,2.4108,2.4151,2.4158,2.4116,2.4196,2.4211,2.4294,2.4335,2.4264,2.4271,2.4514,2.4518,2.4522,2.4554,0,0,0,0,0,0,2.3868,2.3891,2.3925,2.3978,2.4001,2.4117,2.4078,2.4084,2.4119,2.4116,2.4173,2.418,2.4195,2.4284,2.4301,2.4343,2.4276,2.451,2.4516,2.4521,2.455,2.4559,2.4567,0,0,0,0,0,2.3861,2.3931,2.3927,2.3946,2.4044,2.4119,2.4132,2.4147,2.4122,2.4158,2.4186,2.4178,2.4328,2.4292,2.4311,2.4357,2.4508,2.4514,2.4521,2.4546,2.4557,2.4567,0,0,0,0,0,0,2.3883,2.3938,2.3934,2.4024,2.4067,2.4117,2.4162,2.4159,2.4211,2.4206,2.4224,2.4237,2.432,2.4347,2.4306,2.4449,2.4415,2.4425,2.4428,2.4439,2.4448,2.4439,2.4282,0,0,0,0,0,2.3898,2.3953,2.3999,2.4074,2.4095,2.4125,2.4158,2.4166,2.4212,2.4231,2.4265,2.431,2.4368,2.4405,2.4461,2.4554,2.4566,2.4595,2.4604,2.4611,2.4619,2.467,2.4683,2.4545,2.4545,2.4544,0,0,2.393,2.3967,2.4001,2.4079,2.4113,2.417,2.4141,2.4203,2.4246,2.4241,2.432,2.4347,2.4399,2.4487,2.4528,2.4512,2.466,2.4619,2.4624,2.4628,2.4677,2.469,2.4702,2.4549,2.4548,2.4547,0,0,2.4017,2.4051,2.4116,2.4151,2.4203,2.4223,2.4238,2.429,2.4307,2.4387,2.4384,2.4436,2.4535,2.4572,2.4603,2.4705,2.47,2.4723,2.4768,2.4817,2.4828,2.4838,2.4873,2.4885,2.4732,2.4732,2.4732,0,2.405,2.4135,2.415,2.4213,2.4247,2.4244,2.431,2.4344,2.4412,2.4436,2.4418,2.4541,2.4576,2.4672,2.4697,2.4724,2.4742,2.4716,2.4825,2.4835,2.4844,2.4878,2.4891,2.4734,2.4734,2.4734,2.4733,0,2.4173,2.4233,2.4279,2.4343,2.4383,2.4448,2.4473,2.4512,2.4517,2.4538,2.462,2.4662,2.4725,2.4749,2.4756,2.4847,2.4835,2.4821,2.4787,2.486,2.4891,2.4905,2.4737,2.4737,2.4736,2.4735,0,0,2.4275,2.4347,2.4364,2.4392,2.445,2.4497,2.4562,2.4623,2.4655,2.4703,2.4757,2.4841,2.4828,2.4864,2.4874,2.4918,2.4994,2.4898,2.49,2.4913,2.5097,2.5105,2.512,2.4992,2.4995,2.4997,2.5092,0,2.4366,2.4479,2.4494,2.4594,2.4649,2.4648,2.4704,2.4746,2.4769,2.482,2.4845,2.4903,2.4883,2.4904,2.4947,2.4976,2.5031,2.497,2.5042,2.5045,2.5027,2.5137,2.5147,2.5234,2.5104,2.5107,2.5108,0,2.4487,2.4537,2.4642,2.4691,2.4715,2.4765,2.4822,2.4871,2.4919,2.4932,2.4973,2.4978,2.5045,2.501,2.5103,2.5061,2.5092,2.5111,2.5115,2.512,2.5079,2.5144,2.5263,2.5275,2.5128,2.5127,2.5125,0,2.4549,2.4642,2.4717,2.4742,2.4803,2.4838,2.4865,2.491,2.4946,2.4997,2.502,2.5078,2.511,2.5155,2.5176,2.5149,2.5268,2.5234,2.5281,2.528,2.5304,2.5302,2.5427,2.5327,2.5327,2.5327,2.5327,0,2.4648,2.4712,2.4745,2.4791,2.4863,2.4881,2.4952,2.4978,2.5019,2.507,2.5074,2.5122,2.5148,2.52,2.5217,2.5291,2.5306,2.5319,2.5322,2.5317,2.5315,2.5337,2.533,2.533,2.533,2.5329,2.5328,0,2.4728,2.4753,2.4834,2.4885,2.4899,2.4949,2.4993,2.5038,2.5061,2.5126,2.5142,2.5178,2.524,2.5265,2.5342,2.5354,2.5438,2.5438,2.5421,2.5422,2.5466,2.546,2.5608,2.5627,2.5516,2.5517,2.5518,0,2.4788,2.4837,2.4893,2.4927,2.4955,2.501,2.5046,2.5067,2.5105,2.5163,2.5201,2.5263,2.5313,2.5412,2.5445,2.5504,2.5504,2.5551,2.5512,2.5506,2.5503,2.5498,2.5503,2.5558,2.5559,2.556,2.5561,0,2.4892,2.4902,2.4953,2.501,2.5053,2.5098,2.5142,2.5171,2.5198,2.5241,2.5303,2.5342,2.542,2.5481,2.5541,2.557,2.557,2.5573,2.5586,2.5581,2.5568,2.5574,2.5438,2.5569,2.5568,2.5567,2.5567,2.5567,2.4963,2.5006,2.5052,2.5109,2.5145,2.5186,2.523,2.5259,2.5311,2.5375,2.5385,2.5451,2.5499,2.558,2.5611,2.5664,2.5652,2.5672,2.5677,2.5681,2.5683,2.5561,2.5676,2.5676,2.5675,2.5675,2.5675,0,2.5065,2.5095,2.5148,2.5209,2.5255,2.5251,2.53,2.5338,2.5396,2.544,2.5489,2.5562,2.5621,2.5659,2.5719,2.5754,2.5756,2.5769,2.5766,2.5772,2.5691,2.5672,2.5767,2.5767,2.5767,2.5767,2.5767,2.5767,2.5124,2.5196,2.5212,2.5302,2.5332,2.5397,2.5425,2.5464,2.5499,2.5578,2.5627,2.5652,2.5694,2.5757,2.5811,2.5821,2.5843,2.5857,2.5865,2.5788,2.5778,2.5769,2.5752,2.5861,2.5862,2.5942,2.5943,2.5943]},{"header":{"parameterUnit":"m.s-1","parameterCategory":1,"la1":30.2991,"la2":30.254,"lo1":-89.0895,"lo2":-89.0444,"dy":0.0017,"dx":0.0017,"nx":28,"ny":28,"refTime":"2025-07-20T03:00:00:Z","depth":0,"parameterNumber":3,"parameterNumberName":"V-component_of_WINDS"},"data":[0,0,0,0,0,0,0,0,0,0,0,0,0,0,0,0,0,0,0,0,0,0,0,0,0,0,0,0,0,0,0,0,0,0,0,0,0,0,0,0,0,0,0,0,0,0,0,0,0,0,0,0,0,0,0,0,0,0,4.8887,4.8888,0,4.8926,4.8927,4.8927,4.8883,4.8882,4.888,4.8879,4.8913,4.8915,4.8918,0,0,0,0,0,0,0,0,0,0,0,0,0,4.8769,4.8772,4.8887,4.8888,4.8888,4.8926,4.8927,4.8927,4.8884,4.8882,4.888,4.8878,4.8912,4.8915,4.8918,0,0,0,0,0,0,0,0,0,0,0,0,0,4.8815,4.8772,4.8887,4.8871,4.887,4.8926,4.8927,4.8927,4.8884,4.8882,4.8879,4.8877,4.8911,4.8915,4.8918,4.899,0,0,4.893,4.8931,0,0,0,0,0,0,0,0,4.8813,4.882,4.8873,4.8873,4.8872,4.8898,4.8897,4.8948,4.8885,4.8879,4.8879,4.8876,4.8909,4.8913,4.8926,4.8991,4.8993,4.893,4.8932,4.8934,4.8935,0,0,0,0,0,0,0,4.881,4.8818,4.8902,4.8874,4.8873,4.886,4.8864,4.8907,4.8907,4.8879,4.8876,4.8882,4.8908,4.8922,4.8926,4.8993,4.893,4.8933,4.8935,4.8937,4.9118,4.912,0,0,0,0,0,0,4.8809,4.8815,4.8901,4.8904,4.8836,4.8864,4.8869,4.8892,4.8907,4.8907,4.8884,4.8879,4.8917,4.8922,4.8927,4.9011,4.8934,4.8937,4.8939,4.9115,4.9119,4.9121,0,0,0,0,0,0,4.8807,4.8817,4.89,4.8859,4.8868,4.8869,4.8895,4.8894,4.8907,4.891,4.8909,4.8898,4.8915,4.8922,4.8975,4.9011,4.8939,4.8942,4.9112,4.9116,4.912,4.9179,0,0,0,0,0,0,4.8804,4.8817,4.8845,4.886,4.8871,4.8949,4.8897,4.8896,4.8914,4.8909,4.8923,4.8923,4.8914,4.8969,4.8978,4.9015,4.8945,4.9109,4.9114,4.9119,4.9174,4.9185,4.9194,0,0,0,0,0,4.8799,4.886,4.8847,4.8858,4.8907,4.8951,4.8957,4.8947,4.8918,4.8945,4.8947,4.8923,4.9006,4.8975,4.8985,4.9023,4.9107,4.9113,4.9118,4.917,4.9183,4.9194,0,0,0,0,0,0,4.8848,4.8861,4.8848,4.8915,4.8932,4.8944,4.8978,4.8961,4.8986,4.8979,4.8964,4.8967,4.9023,4.9028,4.8994,4.9092,4.9051,4.9059,4.9087,4.9099,4.9109,4.9106,4.8948,0,0,0,0,0,4.8867,4.8903,4.8912,4.897,4.898,4.8978,4.8997,4.8987,4.9004,4.901,4.9016,4.9031,4.9061,4.908,4.9108,4.9175,4.9176,4.9206,4.9216,4.9224,4.9231,4.9265,4.9278,4.9141,4.9141,4.9141,0,0,4.8905,4.8917,4.8941,4.898,4.8993,4.9029,4.8984,4.9025,4.905,4.9016,4.9066,4.9071,4.9087,4.9147,4.9173,4.9153,4.9269,4.9231,4.9238,4.924,4.9273,4.9286,4.9297,4.9145,4.9144,4.9143,0,0,4.8994,4.9007,4.9057,4.907,4.909,4.9088,4.91,4.9114,4.9116,4.9167,4.9142,4.9171,4.9223,4.9235,4.9248,4.934,4.9318,4.9349,4.9401,4.9435,4.9445,4.9455,4.9487,4.9499,4.9356,4.9356,4.9357,0,4.9039,4.9094,4.9084,4.9126,4.9143,4.9115,4.9164,4.9177,4.9204,4.9216,4.9193,4.9256,4.9265,4.9327,4.9349,4.9361,4.9373,4.9347,4.9445,4.9455,4.9463,4.9493,4.9505,4.936,4.936,4.9359,4.9359,0,4.9147,4.9186,4.9223,4.9252,4.9273,4.9318,4.9313,4.9335,4.9324,4.9324,4.9374,4.9384,4.9413,4.9427,4.9415,4.9486,4.9473,4.9448,4.9406,4.948,4.9508,4.952,4.9365,4.9364,4.9363,4.9362,0,0,4.9268,4.929,4.9304,4.9316,4.9336,4.9364,4.9407,4.9436,4.9455,4.9475,4.9509,4.9553,4.953,4.9544,4.9534,4.9564,4.9635,4.9535,4.9535,4.9552,4.9712,4.973,4.9744,4.9621,4.9623,4.9625,4.9711,0,4.9356,4.9433,4.9424,4.9496,4.9531,4.9504,4.9541,4.9556,4.9557,4.9584,4.9584,4.9615,4.9583,4.9591,4.962,4.962,4.9666,4.9614,4.9651,4.9652,4.9647,4.9759,4.9778,4.9859,4.9721,4.9723,4.9725,0,4.9469,4.9494,4.957,4.9584,4.9598,4.9632,4.9657,4.9685,4.97,4.9698,4.9715,4.9699,4.9739,4.9698,4.9753,4.9717,4.9732,4.9734,4.9737,4.9739,4.9693,4.9763,4.9885,4.9897,4.9742,4.9741,4.9739,0,4.9548,4.96,4.9652,4.9664,4.9681,4.9705,4.9713,4.9726,4.9744,4.9766,4.9777,4.9802,4.9816,4.9835,4.9826,4.9797,4.9882,4.984,4.988,4.9881,4.9899,4.9898,5.0024,4.991,4.991,4.991,4.9909,0,4.9647,4.9694,4.9688,4.972,4.9771,4.976,4.981,4.9815,4.9827,4.9857,4.9835,4.9864,4.9851,4.9878,4.9871,4.9917,4.9923,4.9922,4.9919,4.9923,4.9923,4.9932,4.9926,4.9913,4.9912,4.9911,4.9911,0,4.9743,4.9741,4.9796,4.9808,4.9812,4.9849,4.9859,4.9887,4.9887,4.9926,4.9934,4.9932,4.9963,4.9956,4.9989,4.9984,5.0042,5.0032,5.0037,5.0035,5.0075,5.0071,5.021,5.0227,5.0103,5.0105,5.0106,0,4.9806,4.9842,4.9858,4.9878,4.9888,4.992,4.9939,4.9929,4.9948,4.9968,4.9994,5.0024,5.0047,5.0097,5.0097,5.0122,5.0113,5.016,5.0116,5.0119,5.0112,5.011,5.0113,5.0168,5.017,5.0171,5.0172,0,4.9917,4.9914,4.9943,4.9971,4.9994,5.0015,5.0034,5.005,5.0041,5.0064,5.0097,5.0115,5.0149,5.0178,5.0201,5.0207,5.0188,5.0186,5.0196,5.02,5.0202,5.0201,5.006,5.0182,5.0181,5.018,5.018,5.0179,4.9998,5.0028,5.0045,5.0076,5.009,5.0108,5.0135,5.0138,5.0166,5.0194,5.0186,5.0222,5.0235,5.0265,5.0273,5.0301,5.0283,5.0298,5.0302,5.0306,5.031,5.0198,5.0305,5.0304,5.0304,5.0304,5.0304,0,5.0107,5.0117,5.0146,5.0174,5.0198,5.018,5.0199,5.022,5.0253,5.0268,5.0291,5.0328,5.0356,5.0358,5.0384,5.0405,5.0397,5.0412,5.041,5.0411,5.0325,5.0313,5.0418,5.0418,5.0418,5.0418,5.0418,5.0418,5.0167,5.0217,5.0216,5.0272,5.028,5.0317,5.0329,5.0345,5.0357,5.0399,5.0423,5.0425,5.0434,5.046,5.0484,5.0484,5.0494,5.0513,5.0509,5.0429,5.0417,5.0407,5.0395,5.0516,5.0516,5.0593,5.0594,5.0594]}]]